Location: Chippewa Lake
(41.0698°N, 81.9010°W)
Time: 02:05:53
(UTC+00:00)

Cosmos 1844 - Pass Details

Date: 09 May 2021
Orbit: 824 x 866 km, 70.9° (Epoch: 24 June)

Event Time Altitude Azimuth Distance (km) Brightness Sun altitude
Rises 00:52:08 0° 174° (S) 3,422 6.5 -4.2°
Reaches altitude 10° 00:54:50 10° 164° (SSE) 2,485 5.7 -4.7°
Maximum altitude 00:59:47 31° 104° (ESE) 1,457 4.5 -5.5°
Drops below altitude 10° 01:04:42 10° 44° (NE) 2,476 6.0 -6.3°
Sets 01:07:22 0° 34° (NE) 3,408 6.8 -6.7°
